Regional Weather Roundup
Issued by NWS

Current Version | Previous Version | Text Only | Print | Product List | Glossary On
Versions: 1 2 3 4 5 6 7 8 9 10 11 12 13 14 15 16 17 18 19 20 21 22 23 24 25 26 27 28 29 30 31 32 33 34 35 36 37 38 39 40 41 42 43 44 45 46 47 48 49 50
000
ASUS43 KDMX 251007
RWRIA

WEATHER ROUNDUP FOR IOWA
NATIONAL WEATHER SERVICE DES MOINES IA
400 AM CST SUN JAN 25 2015

NOTE: "FAIR" INDICATES FEW OR NO CLOUDS BELOW 12,000 FEET WITH NO
SIGNIFICANT WEATHER AND/OR OBSTRUCTIONS TO VISIBILITY.

* - THESE STATIONS ARE NOT NWS STATIONS...THUS NOT UNDER NWS
QUALITY CONTROL.  THEY ALSO DO NOT REPORT WEATHER SUCH
AS PRECIPITATION OR FOG.

IAZ001>003-012>014-020>022-031>034-043>046-251100-
   NORTHWEST IOWA

CITY           SKY/WX    TMP DP  RH WIND       PRES   REMARKS
CARROLL *      LGT SNOW  34  34 100 N16       29.63R WCI  23
CHEROKEE *     FLURRIES  34  34 100 N12       29.70R WCI  25
DENISON *      LGT SNOW  34  34 100 N14G20    29.65R WCI  24
LE MARS *      LGT RAIN  34  34 100 N16       29.75R WCI  23
ORANGE CITY *  LGT RAIN  34  32  93 N14G20    29.73R WCI  24
SHELDON *      FLURRIES  34  34 100 N16       29.72R WCI  23
SIOUX CITY     LGT SNOW  34  32  92 NW17      29.75R FOG     WCI  23
SPENCER        CLOUDY    35  32  88 N17       29.70R WCI  25
STORM LAKE *   LGT SNOW  34  32  93 N17G23    29.67R WCI  23
$$

IAZ055>058-069>071-079>083-090>094-251100-
   SOUTHWEST IOWA

CITY           SKY/WX    TMP DP  RH WIND       PRES   REMARKS
ATLANTIC *     LGT RAIN  37  37 100 N13       29.61R WCI  29
AUDUBON *      LGT RAIN  36  32  87 N10       29.63R WCI  28
CLARINDA *     CLOUDY    41  37  87 NW14G21   29.63S
COUNCIL BLFS * CLOUDY    37  37 100 NW23G31   29.64R WCI  26
CRESTON *      CLOUDY    41  41 100 NW16      29.56S
HARLAN  *      LGT RAIN  36  36 100 N18G25    29.68R WCI  25
LAMONI         CLOUDY    43  39  86 NW16      29.55S
RED OAK *      CLOUDY    41  37  87 NW14G25   29.63R
SHENANDOAH *   CLOUDY    41  37  87 NW15G25   29.64S
$$

IAZ047>049-059>061-072>074-084-251100-
   CENTRAL IOWA

CITY           SKY/WX    TMP DP  RH WIND       PRES   REMARKS
AMES           CLOUDY    37  33  85 N9        29.58R WCI  30
ANKENY *       CLOUDY    37  37 100 N9        29.57R WCI  31
CHARITON *     CLOUDY    39  39 100 CALM      29.53S
DES MOINES     CLOUDY    41  37  86 NE14      29.56S
GRINNELL*      RAIN      37  36  93 N5        29.56S WCI  34
KNOXVILLE *    MIX PCPN  39  37  93 NE7       29.53S WCI  34
MARSHALLTOWN   LGT RAIN  36  34  92 N9        29.57R WCI  29
PELLA *        LGT RAIN  39  37  93 CALM      29.57S
PERRY *        FLURRIES  37  36  93 N10       29.59R WCI  30
$$

IAZ004>006-015-016-023>025-035-036-251100-
   NORTH CENTRAL IOWA

CITY           SKY/WX    TMP DP  RH WIND       PRES   REMARKS
ALGONA *       LGT SNOW  34  34 100 N18       29.66R WCI  23
CLARION *      FLURRIES  34  34 100 N13       29.62R WCI  25
ESTHERVILLE    LGT SNOW  32  31  96 N17       29.69R FOG     WCI  21
FORT DODGE *   CLOUDY    34  30  86 N7        29.63R WCI  28
MASON CITY     LGT SNOW  33  32  96 NE14      29.65R FOG     WCI  23
FOREST CITY *  LGT SNOW  34  32  93 NE14      29.65R WCI  24
IOWA FALLS *   LGT RAIN  36  32  87 N7        29.61R WCI  30
$$

IAZ007>011-017>019-026>030-037>042-050>054-066-251100-
   NORTHEAST IOWA

CITY           SKY/WX    TMP DP  RH WIND       PRES   REMARKS
CEDAR RAPIDS   LGT RAIN  35  33  92 NE7       29.57S WCI  29
CHARLES CITY * CLOUDY    36  36 100 NE13      29.64R WCI  27
CLINTON *      CLOUDY    34  30  86 E15       29.63S WCI  24
DECORAH *      CLOUDY    34  32  93 E13       29.65R WCI  25
DUBUQUE        CLOUDY    33  30  88 NE13      29.62R WCI  24
MONTICELLO *   CLOUDY    36  36 100 NE8       29.61R WCI  29
OELWEIN *      CLOUDY    34  34 100 E16       29.60S WCI  23
WATERLOO       CLOUDY    35  33  92 NE6       29.60R WCI  30
$$

IAZ064-065-067-068-078-251100-
   EAST CENTRAL IOWA

CITY           SKY/WX    TMP DP  RH WIND       PRES   REMARKS
DAVENPORT      CLOUDY    34  31  88 E12       29.59S WCI  25
IOWA CITY      LGT RAIN  35  34  96 CALM      29.59S
MT. PLEASANT * LGT RAIN  37  37 100 CALM      29.56F
MUSCATINE *    CLOUDY    36  32  87 CALM      29.59S
QUAD CITIES    CLOUDY    34  31  88 E6        29.59R WCI  29
$$

IAZ062-063-075>077-085>089-095>099-251100-
   SOUTHEAST IOWA

CITY           SKY/WX    TMP DP  RH WIND       PRES   REMARKS
BURLINGTON     CLOUDY    41  40  96 N5        29.55F
FAIRFIELD *    LGT RAIN  39  37  93 CALM      29.56F
FORT MADISON * LGT RAIN  41  39  93 CALM      29.57F
KEOKUK *       CLOUDY    39  37  93 S3        29.56F
OSKALOOSA *    LGT RAIN  37  36  93 E6        29.56S VSB 1   WCI  33
CENTERVILLE *  CLOUDY    39  39 100 SW5       29.55F
OTTUMWA        LGT RAIN  39  39 100 E5        29.54F
WASHINGTON *   MIX PCPN  39  39 100 NW5       29.56F
$$

ABBREVIATIONS USED IN REMARKS
   TC - TEMPERATURES IN CELSIUS
  WCI - WIND CHILL INDEX
   HX - HEAT INDEX
  VSB - VISIBILITY
$$



USA.gov is the U.S. government's official web portal to all federal, state and local government web resources and services.